Leeuwarden, Netherlands

3:46 AM CEST on May 25, 2017 (GMT +0200)
Leeuwarden Air Base

Weather History for EHLW - November, 2013

Change the Weather History Date:

Tuesday, November 19, 2013

  Actual Average Record
Temperature  
Mean Temperature 40 °F -  
Max Temperature 47 °F 42 °F 55 °F (2003)
Min Temperature 33 °F 34 °F 30 °F (1997)
Degree Days  
Heating Degree Days 25    
Moisture  
Dew Point 41 °F    
Average Humidity 91    
Maximum Humidity 100    
Minimum Humidity 76    
Precipitation  
Precipitation 0.08 in - - ()
Sea Level Pressure  
Sea Level Pressure 29.70 in    
Wind  
Wind Speed 8 mph ()    
Max Wind Speed 16 mph    
Max Gust Speed -    
Visibility 5.2 miles    
Events Rain    
Averages and records for this station are not official NWS values.
T = Trace of Precipitation, MM = Missing Value Source: Averaged Metar Reports

Daily Weather History Graph

Daily Weather History Graph

Search for Another Location

Airport or City:

Trip Planner

Search our weather history database for the weather conditions in past years. The results will help you decide how hot, cold, wet, or windy it might be!

Date:

Astronomy

Nov. 19, 2013 Rise Set
Actual Time 8:08 AM CET 4:35 PM CET
Civil Twilight 7:29 AM CET 5:14 PM CET
Nautical Twilight 6:46 AM CET 5:57 PM CET
Astronomical Twilight 6:05 AM CET 6:38 PM CET
Moon 6:10 PM CET (11/19) 9:38 AM CET (11/19)
Length of Visible Light 9h 45m
Length of Day
8h 26m
Full, 97% of the Moon is Illuminated
Nov 19
Full
Nov 25
Last Quarter
Dec 3
New
Dec 9
First Quarter
Dec 17
Full

Hourly Weather History & Observations

Time (CET) Temp. Windchill Dew Point Humidity Pressure Visibility Wind Dir Wind Speed Gust Speed Precip Events Conditions
12:25 AM 44.6 °F 39.2 °F 42.8 °F 93% 29.65 in 2.8 mi SSW 10.4 mph - N/A   Overcast
12:30 AM 44.6 °F 38.8 °F 42.8 °F 93% 29.65 in 1.8 mi SSW 11.5 mph - N/A   Overcast
12:51 AM 44.6 °F 38.4 °F 42.8 °F 93% 29.65 in - SW 12.7 mph - N/A   Overcast
12:55 AM 44.6 °F 38.4 °F 42.8 °F 93% 29.65 in - SW 12.7 mph - N/A   Overcast
1:00 AM 44 °F - 43 °F 94% 29.67 in 2 mi SW 13.4 mph - -   Mist
1:25 AM 42.8 °F 36.2 °F 42.8 °F 100% 29.65 in - SW 12.7 mph - N/A   Overcast
1:38 AM 44.6 °F 38.8 °F 42.8 °F 93% 29.65 in - SSW 11.5 mph - N/A   Overcast
1:48 AM 44.6 °F 38.8 °F 42.8 °F 93% 29.65 in 1.9 mi SW 11.5 mph - N/A   Overcast
1:55 AM 44.6 °F 39.2 °F 42.8 °F 93% 29.65 in 1.7 mi SSW 10.4 mph - N/A   Overcast
2:25 AM 42.8 °F 37.0 °F 42.8 °F 100% 29.62 in 2.2 mi SSW 10.4 mph - N/A   Overcast
2:40 AM 42.8 °F 36.6 °F 42.8 °F 100% 29.62 in 2.5 mi SSW 11.5 mph - N/A   Overcast
2:55 AM 42.8 °F 37.0 °F 42.8 °F 100% 29.62 in 2.2 mi SSW 10.4 mph - N/A   Overcast
3:10 AM 42.8 °F 37.0 °F 42.8 °F 100% 29.62 in 1.7 mi SSW 10.4 mph - N/A   Light Drizzle
3:15 AM 42.8 °F 36.6 °F 42.8 °F 100% 29.62 in 1.7 mi SSW 11.5 mph - N/A   Overcast
3:25 AM 42.8 °F 36.6 °F 42.8 °F 100% 29.62 in 1.9 mi SSW 11.5 mph - N/A Rain Light Rain
3:33 AM 42.8 °F 37.0 °F 42.8 °F 100% 29.62 in 1.8 mi SSW 10.4 mph - N/A   Light Drizzle
3:37 AM 42.8 °F 37.5 °F 42.8 °F 100% 29.62 in 1.8 mi SW 9.2 mph - N/A   Light Drizzle
3:55 AM 44.6 °F 39.2 °F 42.8 °F 93% 29.62 in 1.9 mi SW 10.4 mph - N/A   Drizzle
4:00 AM 44.6 °F 39.2 °F 42.8 °F 93% 29.62 in 1.9 mi SW 10.4 mph - N/A   Light Drizzle
4:04 AM 44.6 °F 39.2 °F 42.8 °F 93% 29.62 in 1.9 mi SW 10.4 mph - N/A   Drizzle
4:11 AM 44.6 °F 39.2 °F 42.8 °F 93% 29.62 in 1.7 mi SW 10.4 mph - N/A   Drizzle
4:15 AM 44.6 °F 39.7 °F 44.6 °F 100% 29.62 in 1.5 mi SW 9.2 mph - N/A   Drizzle
4:19 AM 44.6 °F 40.7 °F 44.6 °F 100% 29.62 in 1.4 mi SSW 6.9 mph - N/A   Drizzle
4:25 AM 44.6 °F 41.4 °F 44.6 °F 100% 29.62 in 1.5 mi SW 5.8 mph - N/A   Drizzle
4:46 AM 44.6 °F 42.2 °F 44.6 °F 100% 29.62 in - SSW 4.6 mph - N/A Rain Light Rain
4:50 AM 44.6 °F 42.2 °F 44.6 °F 100% 29.62 in - WSW 4.6 mph - N/A Rain Light Rain
4:55 AM 44.6 °F 42.2 °F 44.6 °F 100% 29.62 in 1.7 mi West 4.6 mph - N/A Rain Light Rain
5:11 AM 44.6 °F - 44.6 °F 100% 29.62 in 2.5 mi SW 2.3 mph - N/A Rain Light Rain
5:16 AM 44.6 °F - 44.6 °F 100% 29.62 in 3.7 mi WSW 2.3 mph - N/A Rain Rain
5:25 AM 44.6 °F 43.1 °F 44.6 °F 100% 29.62 in 5.0 mi West 3.5 mph - N/A   Drizzle
5:31 AM 44.6 °F 43.1 °F 44.6 °F 100% 29.62 in 5.6 mi West 3.5 mph - N/A   Drizzle
5:35 AM 44.6 °F 43.1 °F 44.6 °F 100% 29.62 in 5.6 mi West 3.5 mph - N/A   Drizzle
5:48 AM 44.6 °F 43.1 °F 44.6 °F 100% 29.62 in 5.0 mi West 3.5 mph - N/A Rain Light Rain Showers
5:55 AM 44.6 °F 42.2 °F 44.6 °F 100% 29.62 in 6.2 mi West 4.6 mph - N/A Rain Light Rain
6:01 AM 44.6 °F 41.4 °F 42.8 °F 93% 29.62 in 6.2 mi WNW 5.8 mph - N/A   Drizzle
6:09 AM 44.6 °F 40.7 °F 42.8 °F 93% 29.62 in 6.2 mi NW 6.9 mph - N/A Rain Light Rain
6:13 AM 44.6 °F 40.7 °F 42.8 °F 93% 29.62 in 6.2 mi NW 6.9 mph - N/A   Drizzle
6:25 AM 44.6 °F 40.7 °F 42.8 °F 93% 29.62 in 6.2 mi NW 6.9 mph - N/A Rain Light Rain
6:55 AM 44.6 °F 42.2 °F 42.8 °F 93% 29.62 in 6.2 mi WNW 4.6 mph - N/A   Drizzle
7:00 AM 44 °F - 42 °F 92% 29.65 in 14 mi WNW 4.5 mph - - Rain Heavy Drizzle
7:25 AM 44.6 °F 42.2 °F 42.8 °F 93% 29.65 in 6.2 mi West 4.6 mph - N/A   Drizzle
7:55 AM 44.6 °F 42.2 °F 42.8 °F 93% 29.65 in 6.2 mi West 4.6 mph - N/A   Light Drizzle
8:05 AM 44.6 °F 42.2 °F 42.8 °F 93% 29.65 in 6.2 mi West 4.6 mph - N/A   Light Drizzle
8:17 AM 44.6 °F 42.2 °F 42.8 °F 93% 29.65 in 6.2 mi West 4.6 mph - N/A Rain Light Rain
8:25 AM 44.6 °F 43.1 °F 42.8 °F 93% 29.65 in 6.2 mi West 3.5 mph - N/A   Light Drizzle
8:29 AM 44.6 °F 43.1 °F 42.8 °F 93% 29.65 in 6.2 mi West 3.5 mph - N/A   Overcast
8:55 AM 44.6 °F 42.2 °F 42.8 °F 93% 29.68 in 6.2 mi West 4.6 mph - N/A   Overcast
9:02 AM 44.6 °F 43.1 °F 42.8 °F 93% 29.68 in 6.2 mi West 3.5 mph - N/A   Mostly Cloudy
9:06 AM 44.6 °F 42.2 °F 42.8 °F 93% 29.68 in 6.2 mi West 4.6 mph - N/A   Overcast
9:10 AM 44.6 °F 42.2 °F 42.8 °F 93% 29.68 in 6.2 mi West 4.6 mph - N/A   Mostly Cloudy
9:20 AM 44.6 °F 41.4 °F 42.8 °F 93% 29.68 in 6.2 mi West 5.8 mph - N/A   Light Drizzle
9:25 AM 44.6 °F 40.7 °F 42.8 °F 93% 29.68 in 5.0 mi WNW 6.9 mph - N/A   Heavy Drizzle
9:30 AM 44.6 °F 40.7 °F 42.8 °F 93% 29.68 in 5.6 mi WNW 6.9 mph - N/A Rain Rain
9:34 AM 44.6 °F 39.7 °F 42.8 °F 93% 29.68 in 5.6 mi NW 9.2 mph - N/A Rain Rain Showers
9:38 AM 44.6 °F 39.7 °F 42.8 °F 93% 29.68 in 6.2 mi NNW 9.2 mph - N/A Rain Light Rain Showers
9:40 AM 44.6 °F 40.2 °F 42.8 °F 93% 29.68 in 6.2 mi North 8.1 mph - N/A Rain Light Rain
9:44 AM 44.6 °F 40.7 °F 42.8 °F 93% 29.68 in 6.2 mi North 6.9 mph - N/A Rain Light Rain
9:55 AM 44.6 °F 42.2 °F 42.8 °F 93% 29.68 in 6.2 mi NNE 4.6 mph - N/A Rain Light Rain
10:15 AM 44.6 °F - 42.8 °F 93% 29.68 in 6.2 mi NNW 2.3 mph - N/A   Mostly Cloudy
10:25 AM 44.6 °F - 42.8 °F 93% 29.68 in 6.2 mi NW 2.3 mph - N/A   Mostly Cloudy
10:26 AM 44.6 °F - 44.6 °F 100% 29.68 in 6.2 mi NW 2.3 mph - N/A   Mostly Cloudy
10:35 AM 46.4 °F 45.2 °F 44.6 °F 93% 29.71 in 6.2 mi NW 3.5 mph - N/A   Overcast
10:55 AM 46.4 °F 44.3 °F 44.6 °F 93% 29.71 in 6.2 mi NW 4.6 mph - N/A   Overcast
10:56 AM 46.4 °F 42.9 °F 44.6 °F 93% 29.71 in 6.2 mi NNW 6.9 mph - N/A   Overcast
11:11 AM 46.4 °F 41.5 °F 42.8 °F 87% 29.71 in 6.2 mi North 10.4 mph - N/A   Mostly Cloudy
11:25 AM 46.4 °F 42.4 °F 42.8 °F 87% 29.71 in 6.2 mi North 8.1 mph - N/A   Mostly Cloudy
11:55 AM 46.4 °F 41.9 °F 42.8 °F 87% 29.71 in 6.2 mi North 9.2 mph - N/A   Mostly Cloudy
11:59 AM 46.4 °F 41.5 °F 41.0 °F 81% 29.71 in 6.2 mi North 10.4 mph - N/A   Mostly Cloudy
12:25 PM 46.4 °F 43.5 °F 42.8 °F 87% 29.71 in 6.2 mi North 5.8 mph - N/A   Mostly Cloudy
12:35 PM 48.2 °F - 42.8 °F 82% 29.74 in 6.2 mi North 6.9 mph - N/A   Mostly Cloudy
12:55 PM 46.4 °F 41.1 °F 41.0 °F 81% 29.74 in 6.2 mi North 11.5 mph - N/A Rain Light Rain
1:00 PM 46 °F - 42 °F 80% 29.75 in 22 mi North 11.2 mph - - Rain Light Rain Showers
1:02 PM 46.4 °F 41.5 °F 42.8 °F 87% 29.74 in 6.2 mi North 10.4 mph - N/A   Mostly Cloudy
1:06 PM 46.4 °F 41.9 °F 42.8 °F 87% 29.74 in 6.2 mi North 9.2 mph - N/A   Mostly Cloudy
1:13 PM 46.4 °F 41.5 °F 42.8 °F 87% 29.74 in 6.2 mi North 10.4 mph - N/A   Mostly Cloudy
1:25 PM 46.4 °F 40.7 °F 42.8 °F 87% 29.74 in 6.2 mi North 12.7 mph - N/A   Overcast
1:32 PM 46.4 °F 41.5 °F 41.0 °F 81% 29.74 in 6.2 mi North 10.4 mph - N/A Rain Light Rain
1:38 PM 44.6 °F 38.8 °F 41.0 °F 87% 29.74 in 6.2 mi NNW 11.5 mph - N/A   Drizzle
1:55 PM 46.4 °F 40.1 °F 41.0 °F 81% 29.74 in 6.2 mi NNW 15.0 mph - N/A   Mostly Cloudy
2:00 PM 46.4 °F 39.8 °F 41.0 °F 81% 29.74 in 6.2 mi NNW 16.1 mph - N/A   Mostly Cloudy
2:25 PM 46.4 °F 40.1 °F 42.8 °F 87% 29.74 in 6.2 mi North 15.0 mph - N/A   Mostly Cloudy
2:44 PM 46.4 °F 41.1 °F 39.2 °F 76% 29.74 in 6.2 mi North 11.5 mph - N/A   Overcast
2:51 PM 46.4 °F 41.5 °F 41.0 °F 81% 29.74 in 6.2 mi North 10.4 mph - N/A   Mostly Cloudy
2:55 PM 46.4 °F 41.1 °F 41.0 °F 81% 29.74 in 6.2 mi North 11.5 mph - N/A   Mostly Cloudy
3:25 PM 46.4 °F 40.7 °F 39.2 °F 76% 29.77 in 6.2 mi North 12.7 mph - N/A   Overcast
3:55 PM 44.6 °F 39.7 °F 39.2 °F 81% 29.77 in 6.2 mi North 9.2 mph - N/A   Overcast
4:25 PM 44.6 °F 39.7 °F 39.2 °F 81% 29.77 in 6.2 mi North 9.2 mph - N/A   Overcast
4:27 PM 44.6 °F 39.7 °F 39.2 °F 81% 29.77 in 6.2 mi North 9.2 mph - N/A   Mostly Cloudy
4:35 PM 44.6 °F 39.2 °F 39.2 °F 81% 29.77 in 6.2 mi North 10.4 mph - N/A   Mostly Cloudy
4:55 PM 44.6 °F 40.2 °F 37.4 °F 76% 29.80 in 6.2 mi North 8.1 mph - N/A   Mostly Cloudy
4:56 PM 42.8 °F 37.5 °F 37.4 °F 81% 29.80 in 6.2 mi North 9.2 mph - N/A   Mostly Cloudy
5:25 PM 44.6 °F 38.8 °F 37.4 °F 76% 29.80 in 6.2 mi North 11.5 mph - N/A   Mostly Cloudy
5:55 PM 41.0 °F 35.2 °F 35.6 °F 81% 29.80 in 6.2 mi North 9.2 mph - N/A   Unknown
6:25 PM 39.2 °F 33.6 °F 33.8 °F 81% 29.83 in 6.2 mi North 8.1 mph - N/A   Mostly Cloudy
6:55 PM 39.2 °F 33.6 °F 35.6 °F 87% 29.83 in 6.2 mi North 8.1 mph - N/A   Unknown
7:00 PM 39 °F - 35 °F 78% 29.85 in 25 mi North 6.7 mph - -   Partly Cloudy
7:25 PM 37.4 °F 32.1 °F 33.8 °F 87% 29.83 in 6.2 mi North 6.9 mph - N/A   Partly Cloudy
7:55 PM 35.6 °F 29.9 °F 32.0 °F 87% 29.83 in 6.2 mi NNW 6.9 mph - N/A   Unknown
8:25 PM 37.4 °F 33.8 °F 33.8 °F 87% 29.86 in 6.2 mi North 4.6 mph - N/A   Partly Cloudy
8:55 PM 37.4 °F 32.8 °F 32.0 °F 81% 29.86 in 6.2 mi North 5.8 mph - N/A   Unknown
9:25 PM 33.8 °F 27.7 °F 30.2 °F 87% 29.86 in 6.2 mi NNW 6.9 mph - N/A   Partly Cloudy
9:55 PM 35.6 °F 30.7 °F 32.0 °F 87% 29.86 in 6.2 mi NNW 5.8 mph - N/A   Partly Cloudy
10:25 PM 35.6 °F 29.9 °F 32.0 °F 87% 29.86 in 6.2 mi NW 6.9 mph - N/A   Unknown
10:55 PM 37.4 °F 33.8 °F 33.8 °F 87% 29.86 in 6.2 mi NW 4.6 mph - N/A   Partly Cloudy
11:25 PM 35.6 °F - 33.8 °F 93% 29.83 in 6.2 mi WNW 2.3 mph - N/A   Partly Cloudy
11:55 PM 35.6 °F 32.8 °F 32.0 °F 87% 29.83 in 6.2 mi WNW 3.5 mph - N/A   Unknown